Stations météo

réclame
Mon MeteoGroup
Ansbach/Katterbach, Allemagne (10755): Température de l'air & dewpoint: 06.12.2019 00:00:00 - 12.12.2019 00:00:00 (CET)Ansbach/Katterbach, Allemagne (10755): Vitesse du vent & gusts: 06.12.2019 00:00:00 - 12.12.2019 00:00:00 (CET)Ansbach/Katterbach, Allemagne (10755): Direction du vent: 06.12.2019 00:00:00 - 12.12.2019 00:00:00 (CET)Ansbach/Katterbach, Allemagne (10755): reduced air pressure: 06.12.2019 00:00:00 - 12.12.2019 00:00:00 (CET)Ansbach/Katterbach, Allemagne (10755): visibility: 06.12.2019 00:00:00 - 12.12.2019 00:00:00 (CET)Ansbach/Katterbach, Allemagne (10755): Quantités de précipitations: 06.12.2019 00:00:00 - 12.12.2019 00:00:00 (CET)
Date & Time tt [°C] td [°C] ff [km/h] ff [knt] fx [km/h] fx [knt] dd ppp [hPa] vv [km] rr [mm]
12.12.2019 00:00:00 0,3 0,3 11 6 - - SSW 1010,2 5 0,3
11.12.2019 23:00:00 0,4 0,4 13 7 - - SSW 1010,2 4,0 0,0
11.12.2019 22:00:00 0,4 0,4 9 5 - - SSW 1010,8 5 0,3
11.12.2019 21:00:00 0,5 0,5 15 8 - - S 1011,3 5 0,3
11.12.2019 20:00:00 0,3 0,3 11 6 - - S 1011,5 8 0,3
11.12.2019 19:00:00 0,2 0,2 9 5 - - S 1011,8 8 0,0
11.12.2019 18:00:00 0,0 0,0 9 5 - - S 1011,8 6 0,0
11.12.2019 17:00:00 0,5 -0,5 9 5 - - SSE 1011,3 10 -
11.12.2019 16:00:00 0,5 -1,9 18 10 - - SE 1011,6 10 -
11.12.2019 15:00:00 0,5 -2,2 11 6 - - SSE 1012,6 10 -
11.12.2019 14:00:00 0,5 -2,2 11 6 - - S 1013,7 10 -
11.12.2019 13:00:00 0,5 -1,7 15 8 - - S 1014,7 10 -
11.12.2019 12:00:00 -0,3 -2,2 15 8 - - SSE 1015,9 10 -
11.12.2019 11:00:00 -1,0 -2,6 15 8 - - SSE 1017,0 10 -
11.12.2019 10:00:00 -1,6 -2,7 16 9 - - SSE 1017,9 10 -
11.12.2019 09:00:00 -2,0 -3,3 11 6 - - SSE 1018,6 10 -
11.12.2019 08:00:00 - - - - - - - - - -
11.12.2019 07:00:00 - - - - - - - - - -
11.12.2019 06:00:00 -2,0 -2,6 9 5 - - S 1020,1 10 -
11.12.2019 05:00:00 -1,9 -2,0 9 5 - - SSE 1020,8 10 -
11.12.2019 04:00:00 -1,4 -1,5 8 4 - - SSE 1021,9 10 -
11.12.2019 03:00:00 -1,4 -1,5 13 7 - - SSE 1022,4 10 -
11.12.2019 02:00:00 -1,5 -1,6 13 7 - - S 1023,7 10 -
11.12.2019 01:00:00 -2,0 -2,0 16 9 - - SSE 1024,6 10 -
11.12.2019 00:00:00 -2,1 -2,1 11 6 - - SSE 1026,0 10 -
10.12.2019 23:00:00 -1,8 -1,8 11 6 - - SE 1026,7 10 -
10.12.2019 22:00:00 -2,0 -2,0 9 5 - - SSE 1027,1 10 -
10.12.2019 21:00:00 -1,7 -1,7 8 4 - - SE 1027,7 10 -
10.12.2019 20:00:00 -0,9 -1,0 9 5 - - SE 1028,4 10 -
10.12.2019 19:00:00 -0,6 -0,7 8 4 - - SE 1028,4 10 -
10.12.2019 18:00:00 0,2 0,1 9 5 - - S 1028,5 10 -
10.12.2019 17:00:00 0,6 0,5 8 4 - - SSE 1028,9 10 -
10.12.2019 16:00:00 1,6 0,9 5 3 - - SSW 1029,4 10 -
10.12.2019 15:00:00 2,5 0,4 11 6 - - WSW 1029,5 10 -
10.12.2019 14:00:00 3,3 1,5 11 6 - - SW 1029,8 10 -
10.12.2019 13:00:00 2,4 1,7 13 7 - - WSW 1030,2 10 -
10.12.2019 12:00:00 1,8 1,7 18 10 - - W 1030,2 10 -
10.12.2019 11:00:00 1,8 1,7 11 6 - - W 1029,5 10 -
10.12.2019 10:00:00 1,4 1,4 16 9 - - W 1029,5 10 -
10.12.2019 09:00:00 1,0 1,0 18 10 - - W 1028,8 10 -
10.12.2019 08:00:00 0,9 0,9 16 9 - - W 1027,8 10 -
10.12.2019 07:00:00 0,8 0,8 16 9 - - W 1026,7 10 -
10.12.2019 06:00:00 1,0 1,0 15 8 - - W 1025,4 10 -
10.12.2019 05:00:00 1,3 1,3 13 7 - - WNW 1024,0 10 -
10.12.2019 04:00:00 2,0 1,9 15 8 - - WNW 1023,1 10 -
10.12.2019 03:00:00 2,5 2,4 22 12 - - WNW 1021,5 10 0,0
10.12.2019 02:00:00 3,1 3,1 22 12 - - NW 1019,8 10 0,3
10.12.2019 01:00:00 3,6 3,6 21 11 - - NW 1017,8 10 0,3
10.12.2019 00:00:00 4,1 4,1 16 9 - - WNW 1016,1 10 0,3
09.12.2019 23:00:00 4,2 4,2 16 9 - - W 1014,6 10 -
09.12.2019 22:00:00 4,3 4,3 15 8 - - WNW 1013,2 10 0,0
09.12.2019 21:00:00 4,3 4,3 22 12 - - W 1011,9 10 0,0
09.12.2019 20:00:00 4,2 4,2 13 7 - - W 1010,7 10 0,0
09.12.2019 19:00:00 4,2 4,2 16 9 - - WSW 1009,3 10 0,5
09.12.2019 18:00:00 4,5 4,5 24 13 - - W 1008,1 10 0,5
09.12.2019 17:00:00 5,1 5,1 13 7 - - SW 1007,1 10 0,3
09.12.2019 16:00:00 6,2 5,2 21 11 - - WSW 1005,8 10 0,0
09.12.2019 15:00:00 7,0 4,1 22 12 - - SW 1005,1 10 0,0
09.12.2019 14:00:00 7,4 3,4 26 14 50 27 SW 1004,8 10 -
09.12.2019 13:00:00 7,7 3,0 28 15 50 27 SW 1004,6 10 -
09.12.2019 12:00:00 7,6 3,1 29 16 - - WSW 1004,9 10 -
09.12.2019 11:00:00 7,0 3,6 21 11 - - SW 1005,4 10 -
09.12.2019 10:00:00 5,8 3,1 16 9 - - SSW 1005,4 10 -
09.12.2019 09:00:00 5,4 4,5 21 11 - - SSW 1005,6 10 0,0
09.12.2019 08:00:00 4,6 4,5 18 10 - - SW 1005,6 10 -
09.12.2019 07:00:00 5,0 4,9 15 8 - - SSW 1005,9 10 0,0
09.12.2019 06:00:00 5,7 5,0 26 14 - - WSW 1006,1 10 -
09.12.2019 05:00:00 4,8 4,7 21 11 - - SSW 1005,9 10 -
09.12.2019 04:00:00 5,3 5,3 18 10 - - SSW 1006,6 10 -
09.12.2019 03:00:00 5,7 5,6 21 11 - - SW 1007,4 10 -
09.12.2019 02:00:00 5,7 5,7 22 12 - - WSW 1006,4 10 -
09.12.2019 01:00:00 6,1 6,1 22 12 - - WSW 1007,0 10 0,0
09.12.2019 00:00:00 6,0 6,0 22 12 65 35 WSW 1007,0 10 1,0
08.12.2019 23:00:00 8,5 8,5 15 8 - - WSW 1005,7 10 0,0
08.12.2019 22:00:00 9,0 9,0 24 13 - - SW 1005,7 10 0,0
08.12.2019 21:00:00 8,7 8,7 22 12 - - SSW 1006,4 10 -
08.12.2019 20:00:00 9,0 8,8 21 11 - - SW 1007,0 10 0,0
08.12.2019 19:00:00 8,3 8,2 22 12 - - SW 1007,7 10 -
08.12.2019 18:00:00 9,1 7,5 22 12 - - SSW 1008,0 10 0,0
08.12.2019 17:00:00 8,8 7,4 18 10 - - SSW 1008,7 10 0,0
08.12.2019 16:00:00 9,2 6,8 16 9 - - SSW 1009,4 10 -
08.12.2019 15:00:00 9,1 6,5 16 9 - - SSW 1009,7 10 -
08.12.2019 14:00:00 9,1 6,2 21 11 - - S 1010,7 10 -
08.12.2019 13:00:00 8,3 5,8 18 10 - - SSW 1011,8 10 -
08.12.2019 12:00:00 8,3 6,3 24 13 - - SW 1012,8 10 -
08.12.2019 11:00:00 7,5 6,1 22 12 - - SSW 1013,8 10 -
08.12.2019 10:00:00 6,4 5,7 18 10 - - SSW 1014,7 10 -
08.12.2019 09:00:00 - - - - - - - - - -
08.12.2019 08:00:00 - - - - - - - - - -
08.12.2019 07:00:00 - - - - - - - - - -
08.12.2019 06:00:00 5,5 5,5 11 6 - - S 1016,4 10 -
08.12.2019 05:00:00 5,4 5,4 9 5 - - S 1017,1 10 -
08.12.2019 04:00:00 5,5 5,5 16 9 - - SSW 1017,8 10 -
08.12.2019 03:00:00 5,2 5,2 15 8 - - S 1018,5 10 -
08.12.2019 02:00:00 5,4 5,4 9 5 - - S 1019,8 10 -
08.12.2019 01:00:00 5,4 5,4 13 7 - - SW 1019,9 10 -
08.12.2019 00:00:00 5,7 5,7 15 8 - - SSW 1020,2 10 -
07.12.2019 23:00:00 5,7 5,7 13 7 - - SW 1020,6 10 -
07.12.2019 22:00:00 5,5 5,5 13 7 - - WSW 1020,6 10 -
07.12.2019 21:00:00 5,4 5,4 15 8 - - SSW 1020,2 10 -
07.12.2019 20:00:00 5,2 5,2 11 6 - - SW 1020,2 10 0,5
07.12.2019 19:00:00 5,8 5,8 15 8 - - W 1020,6 10 0,8
07.12.2019 18:00:00 6,0 6,0 13 7 - - WSW 1019,9 10 0,0
07.12.2019 17:00:00 6,1 6,1 18 10 - - WSW 1019,2 10 0,3
07.12.2019 16:00:00 6,0 6,0 11 6 - - WSW 1018,8 10 0,3
07.12.2019 15:00:00 6,0 6,0 16 9 - - W 1018,5 10 1,0
07.12.2019 14:00:00 5,7 5,7 16 9 - - W 1018,2 10 1,8
07.12.2019 13:00:00 7,2 7,2 22 12 - - WSW 1018,2 10 0,0
07.12.2019 12:00:00 6,5 6,5 21 11 - - W 1018,4 10 0,0
07.12.2019 11:00:00 7,0 7,0 26 14 - - W 1018,4 10 -
07.12.2019 10:00:00 6,5 6,5 22 12 - - WSW 1017,7 10 0,0
07.12.2019 09:00:00 6,3 6,3 26 14 - - W 1017,6 10 0,0
07.12.2019 08:00:00 6,2 6,2 16 9 - - SW 1016,5 10 0,3
07.12.2019 07:00:00 6,0 6,0 18 10 - - WSW 1016,2 10 0,0
07.12.2019 06:00:00 6,4 6,4 22 12 - - WSW 1015,4 10 0,3
07.12.2019 05:00:00 6,4 6,4 24 13 - - WSW 1014,5 10 0,3
07.12.2019 04:00:00 6,1 6,1 22 12 - - SW 1014,5 10 0,5
07.12.2019 03:00:00 5,9 5,9 16 9 - - SSW 1014,3 10 0,0
07.12.2019 02:00:00 6,4 6,4 29 16 - - SW 1013,9 10 -
07.12.2019 01:00:00 3,9 3,9 13 7 - - S 1014,4 10 0,3
07.12.2019 00:00:00 3,0 3,0 15 8 - - S 1015,6 10 0,5
06.12.2019 23:00:00 3,1 3,1 13 7 - - S 1016,2 10 0,3
06.12.2019 22:00:00 2,7 2,7 11 6 - - S 1016,5 10 -
06.12.2019 21:00:00 2,4 2,4 11 6 - - S 1017,4 10 -
06.12.2019 20:00:00 1,9 1,9 9 5 - - S 1017,8 10 -
06.12.2019 19:00:00 1,7 1,7 13 7 - - S 1017,8 10 -
06.12.2019 18:00:00 0,9 0,9 11 6 - - SSE 1018,4 10 -
06.12.2019 17:00:00 1,5 1,5 16 9 - - SSE 1018,5 10 -
06.12.2019 16:00:00 2,2 2,1 13 7 - - S 1019,2 10 -
06.12.2019 15:00:00 3,4 3,3 9 5 - - S 1019,8 10 -
06.12.2019 14:00:00 2,9 2,9 11 6 - - S 1020,5 10 -
06.12.2019 13:00:00 2,1 2,1 11 6 - - S 1021,2 10 -
06.12.2019 12:00:00 0,9 0,9 16 9 - - S 1022,1 10 -
06.12.2019 11:00:00 -0,5 -0,5 8 4 - - SSW 1023,2 9 -
06.12.2019 10:00:00 -1,7 -1,7 9 5 - - S 1023,4 6 -
06.12.2019 09:00:00 -2,6 -2,6 9 5 - - S 1023,6 4,4 -
06.12.2019 08:00:00 -2,6 -2,6 11 6 - - S 1023,6 4,4 -
06.12.2019 07:00:00 -2,5 -2,5 15 8 - - S 1023,1 2,6 -
06.12.2019 06:00:00 -2,4 -2,4 15 8 - - S 1023,4 0,8 -
06.12.2019 05:00:00 -2,1 -2,1 18 10 - - S 1023,7 0,8 -
06.12.2019 04:00:00 -2,4 -2,4 15 8 - - S 1024,1 0,6 -
06.12.2019 03:00:00 -2,4 -2,4 8 4 - - S 1024,8 0,6 -
06.12.2019 02:00:00 -2,4 -2,4 8 4 - - S 1024,8 0,8 -
06.12.2019 01:00:00 -2,5 -2,5 8 4 - - S 1025,1 0,8 -
06.12.2019 00:00:00 -2,6 -2,6 9 5 - - S 1025,7 0,8 -

tt = Température de l'air
td = dewpoint
ff = Vitesse du vent
fx = gusts
dd = Direction du vent
ppp = reduced air pressure
vv = visibility
rr = Quantités de précipitations

stations d'obs. à proximité